Date String (YYYY-MM-DD hh:mm:ss) UTC,Instrument flags,Ambient pressure (hPa),Sample flow (lpm),Bypass flow (lpm),Sample temperature (°C),Ambient temperature (°C),ASC tube jacket temperature (°C),LED temperature (°C),Box temperature (°C),Sample RH (%),Span deviation,Mass concentration (μg/m³),Mass concentration (μg/m³),Mass concentration (μg/m³)
DateTimeUTC,F1_M11,P_M11,Q1_M11,Q2_M11,T1_M11,T2_M11,T3_M11,T4_M11,T5_M11,U1_M11,ZSPAN_M11,X0_M11,X2_M11,X1_M11
2022-06-04 09:00:00,,0822.1,5.00,0.00,28.9,27.8,00.0,37.8,30.8,20.4,0000.0,0009.55,0004.79,0004.08
2022-06-04 09:01:00,,0822.0,4.99,0.00,28.9,27.8,00.0,37.8,30.8,20.3,0000.0,0009.54,0004.79,0004.05
2022-06-04 09:02:00,,0822.0,5.00,0.00,29.0,27.8,00.0,37.8,30.8,20.3,0000.0,0009.46,0004.76,0004.02
2022-06-04 09:03:00,,0822.0,4.99,0.00,29.0,27.8,00.0,37.8,30.8,20.2,0000.0,0009.51,0004.75,0003.99
2022-06-04 09:04:00,,0822.0,5.00,0.00,29.0,27.8,00.0,37.8,30.8,20.4,0000.0,0009.73,0004.73,0003.96
2022-06-04 09:05:00,,0822.0,5.00,0.00,29.0,27.8,00.0,37.8,30.8,21.1,0000.0,0010.01,0004.71,0003.95
2022-06-04 09:06:00,,0822.0,4.99,0.00,29.0,27.8,00.0,37.9,30.8,20.5,0000.0,0009.92,0004.66,0003.92
2022-06-04 09:07:00,,0822.1,4.99,0.00,29.0,27.8,00.0,37.9,30.8,20.5,0000.0,0009.64,0004.62,0003.90
2022-06-04 09:08:00,,0822.1,5.00,0.00,29.0,27.8,00.0,37.9,30.8,20.4,0000.0,0009.93,0004.59,0003.87
2022-06-04 09:09:00,,0822.1,5.01,0.00,28.9,27.9,00.0,37.9,30.8,20.3,0000.0,0009.94,0004.56,0003.85
2022-06-04 09:10:00,,0822.1,5.00,0.00,29.0,27.9,00.0,37.9,30.8,20.7,0000.0,0009.81,0004.55,0003.84
2022-06-04 09:11:00,,0822.1,5.00,0.00,29.0,27.9,00.0,37.9,30.8,21.0,0000.0,0009.97,0004.59,0003.86
2022-06-04 09:12:00,,0822.1,5.01,0.00,29.0,27.9,00.0,37.9,30.8,20.7,0000.0,0009.95,0004.61,0003.86
2022-06-04 09:13:00,,0822.1,4.99,0.00,29.0,27.9,00.0,37.9,30.9,20.6,0000.0,0009.79,0004.57,0003.87
2022-06-04 09:14:00,,0822.1,5.01,0.00,29.0,27.9,00.0,37.9,30.9,20.6,0000.0,0009.76,0004.57,0003.88
2022-06-04 09:15:00,,0822.1,4.99,0.00,29.0,27.9,00.0,37.9,30.9,20.5,0000.0,0009.44,0004.56,0003.89
2022-06-04 09:16:00,,0822.1,5.00,0.00,29.0,27.9,00.0,37.9,30.9,20.4,0000.0,0008.93,0004.54,0003.89
2022-06-04 09:17:00,,0822.0,5.00,0.00,29.0,27.9,00.0,37.9,30.9,20.4,0000.0,0008.61,0004.58,0003.90
2022-06-04 09:18:00,,0822.0,4.99,0.00,29.0,27.9,00.0,37.9,30.9,20.3,0000.0,0008.58,0004.56,0003.90
2022-06-04 09:19:00,,0822.0,4.99,0.00,29.0,27.9,00.0,37.9,30.9,20.1,0000.0,0008.19,0004.55,0003.91
2022-06-04 09:20:00,,0822.0,5.00,0.00,29.0,27.9,00.0,37.9,30.9,19.9,0000.0,0007.99,0004.56,0003.93
2022-06-04 09:21:00,,0822.0,5.00,0.00,29.0,27.9,00.0,37.9,30.9,19.8,0000.0,0008.12,0004.53,0003.92
2022-06-04 09:22:00,,0822.0,5.00,0.00,29.0,27.9,00.0,37.9,30.9,19.8,0000.0,0008.49,0004.48,0003.90
2022-06-04 09:23:00,,0822.0,4.99,0.00,29.0,27.9,00.0,37.9,30.9,19.8,0000.0,0008.42,0004.43,0003.88
2022-06-04 09:24:00,,0821.9,5.00,0.00,29.0,27.9,00.0,37.9,30.9,19.8,0000.0,0009.17,0004.43,0003.85
2022-06-04 09:25:00,,0821.9,5.01,0.00,29.0,27.9,00.0,37.9,30.9,19.9,0000.0,0009.39,0004.41,0003.83
2022-06-04 09:26:00,,0821.8,4.99,0.00,29.0,27.9,00.0,37.9,30.9,20.1,0000.0,0009.36,0004.38,0003.82
2022-06-04 09:27:00,,0821.8,5.00,0.00,29.0,27.9,00.0,37.9,30.9,20.0,0000.0,0009.39,0004.39,0003.81
2022-06-04 09:28:00,,0821.8,5.00,0.00,29.0,27.9,00.0,37.9,30.9,19.8,0000.0,0009.47,0004.35,0003.80
2022-06-04 09:29:00,,0821.9,5.00,0.00,29.0,27.9,00.0,37.9,30.9,19.6,0000.0,0009.67,0004.35,0003.79
2022-06-04 09:30:00,,0821.9,5.00,0.00,29.0,27.9,00.0,37.9,30.9,19.8,0000.0,0010.00,0004.34,0003.77
2022-06-04 09:31:00,,0821.9,5.01,0.00,29.0,27.9,00.0,37.9,30.9,19.7,0000.0,0010.03,0004.32,0003.76
2022-06-04 09:32:00,,0821.9,5.01,0.00,29.0,27.9,00.0,37.9,30.9,19.9,0000.0,0010.01,0004.34,0003.76
2022-06-04 09:33:00,,0821.9,5.00,0.00,29.0,27.9,00.0,37.9,30.9,19.9,0000.0,0009.50,0004.32,0003.75
2022-06-04 09:34:00,,0821.9,4.98,0.00,29.0,27.9,00.0,37.9,30.9,19.9,0000.0,0009.51,0004.31,0003.76
2022-06-04 09:35:00,,0821.9,5.00,0.00,29.0,27.8,00.0,37.9,30.9,19.8,0000.0,0008.90,0004.29,0003.76
2022-06-04 09:36:00,,0821.9,5.00,0.00,29.0,27.8,00.0,37.9,30.9,19.3,0000.0,0008.51,0004.26,0003.74
2022-06-04 09:37:00,,0822.0,5.00,0.00,29.0,27.9,00.0,37.9,30.9,19.5,0000.0,0008.47,0004.24,0003.72
2022-06-04 09:38:00,,0822.1,5.00,0.00,29.0,27.9,00.0,37.9,30.9,20.3,0000.0,0008.65,0004.22,0003.70
2022-06-04 09:39:00,,0822.1,4.98,0.00,29.0,27.9,00.0,37.9,30.9,20.5,0000.0,0008.62,0004.22,0003.70
2022-06-04 09:40:00,,0822.1,5.01,0.00,29.0,27.9,00.0,37.9,30.9,20.3,0000.0,0008.51,0004.19,0003.71
2022-06-04 09:41:00,,0822.1,5.00,0.00,29.0,27.9,00.0,37.9,30.9,20.1,0000.0,0008.81,0004.20,0003.72
2022-06-04 09:42:00,,0822.1,4.99,0.00,29.0,27.9,00.0,37.9,30.9,20.2,0000.0,0009.01,0004.22,0003.73
2022-06-04 09:43:00,,0822.2,4.99,0.00,29.0,27.9,00.0,37.9,30.9,21.2,0000.0,0009.05,0004.26,0003.75
2022-06-04 09:44:00,,0822.1,5.01,0.00,29.0,27.9,00.0,37.9,30.9,21.7,0000.0,0009.14,0004.34,0003.80
2022-06-04 09:45:00,,0822.1,5.00,0.00,29.1,27.9,00.0,37.9,30.9,21.7,0000.0,0009.21,0004.39,0003.85
2022-06-04 09:46:00,,0822.0,5.00,0.00,29.0,28.0,00.0,37.9,30.9,21.6,0000.0,0009.82,0004.50,0003.92
2022-06-04 09:47:00,,0821.9,5.00,0.00,29.1,28.0,00.0,37.9,30.9,21.6,0000.0,0010.11,0004.61,0003.98
2022-06-04 09:48:00,,0821.9,5.00,0.00,29.1,28.0,00.0,37.9,30.9,21.5,0000.0,0010.61,0004.69,0004.05
2022-06-04 09:49:00,,0822.1,5.00,0.00,29.0,27.9,00.0,37.9,30.9,21.5,0000.0,0010.64,0004.76,0004.10
2022-06-04 09:50:00,,0822.1,5.00,0.00,29.1,28.0,00.0,37.9,30.9,21.6,0000.0,0011.73,0004.88,0004.16
2022-06-04 09:51:00,,0822.1,4.99,0.00,29.1,28.0,00.0,37.9,30.9,21.6,0000.0,0011.95,0005.00,0004.21
2022-06-04 09:52:00,,0822.1,4.99,0.00,29.1,28.0,00.0,38.0,30.9,21.6,0000.0,0011.92,0005.10,0004.26
2022-06-04 09:53:00,,0822.1,5.00,0.00,29.1,28.0,00.0,38.0,30.9,21.7,0000.0,0012.71,0005.18,0004.31
2022-06-04 09:54:00,,0822.1,5.01,0.00,29.1,28.0,00.0,38.0,30.9,21.7,0000.0,0013.70,0005.24,0004.34
2022-06-04 09:55:00,,0822.1,5.00,0.00,29.1,28.0,00.0,38.0,30.9,21.8,0000.0,0015.22,0005.26,0004.35
2022-06-04 09:56:00,,0822.1,4.99,0.00,29.1,28.0,00.0,38.0,31.0,21.8,0000.0,0015.67,0005.30,0004.36
2022-06-04 09:57:00,,0822.2,4.99,0.00,29.1,28.0,00.0,38.0,31.0,21.9,0000.0,0015.35,0005.34,0004.38
2022-06-04 09:58:00,,0822.2,5.00,0.00,29.1,28.0,00.0,38.0,31.0,22.0,0000.0,0015.59,0005.39,0004.39
2022-06-04 09:59:00,,0822.2,5.01,0.00,29.1,28.0,00.0,38.0,31.0,22.1,0000.0,0015.54,0005.45,0004.42
